Location: Poprad
(49.0500°N, 20.3000°E)
Time: 14:26:43
(UTC+02:00)

Daily predictions for brighter satellites

Satellite Brightness Start Highest point End
(mag) Time Altitude Azimuth Time Altitude Azimuth Time Altitude Azimuth
Meteor 2-21 Rocket 4.4 17:57:32 10° S 18:03:34 74° E 18:09:37 10° NNE
SL-14 R/B 4.4 18:00:33 10° NNW 18:04:17 49° W 18:08:01 10° S
Cosmos 1461 3.6 18:03:30 10° SW 18:07:31 55° NW 18:11:46 10° NNE
Cosmos 2322 3.7 18:02:23 10° NNW 18:08:09 77° ENE 18:13:52 10° SSE
Cosmos 1242 Rocket 4.4 18:12:11 10° SW 18:15:35 36° WNW 18:19:02 10° N
GP-B 3.1 18:12:06 10° N 18:16:31 59° E 18:20:54 10° S
Meteor 1-16 Rocket 4.2 18:12:18 10° SSW 18:17:37 84° WNW 18:23:04 10° N
SKYMED 2 4.2 18:14:01 10° NNE 18:18:01 35° E 18:21:59 10° SSE
Aureole 2 4.1 18:15:18 10° NNW 18:18:20 68° ENE 18:21:41 10° SSE
Cosmos 2219 Rocket 2.7 18:13:17 10° NNW 18:18:31 38° NE 18:23:44 10° ESE
Cosmos 1743 Rocket 3.6 18:14:58 10° N 18:19:23 86° W 18:23:48 10° S
USA 116 4.5 18:15:04 10° NNE 18:20:14 69° ESE 18:25:36 10° S
Meteor 2-1 Rocket 4.5 18:15:17 10° S 18:20:54 53° E 18:26:39 10° NNE
Cosmos 44 4.3 18:17:58 10° SSE 18:21:18 22° ESE 18:24:37 10° ENE
CZ-4 R/B 1.9 18:17:58 10° S 18:22:08 70° WSW 18:26:16 10° NNW
Cosmos 2221 3.3 18:18:56 10° SSE 18:22:42 30° E 18:26:30 10° NNE
Aureole 2 Rocket 3.6 18:20:19 10° N 18:23:46 30° ENE 18:27:21 10° ESE
CZ-4C R/B 3.3 18:19:57 10° SSE 18:24:00 23° ESE 18:28:25 10° ENE
NOSS 0 Rocket 4.5 18:18:32 10° NNW 18:24:17 38° NE 18:29:58 10° ESE
Cosmos 921 Rocket 3.0 18:19:57 10° NNW 18:24:26 80° ENE 18:28:49 10° SSE
Cosmos 2084 3.9 18:21:37 10° NNW 18:25:09 35° NE 18:28:37 11° ESE
CZ-4 R/B 4.4 18:22:09 10° SSE 18:26:18 85° ENE 18:30:29 10° NNW
MTI 3.8 18:23:23 10° NNE 18:26:36 59° ESE 18:29:45 10° S
SMAP 4.2 18:27:09 10° S 18:31:39 48° W 18:36:11 10° NNW
Cosmos 1842 Rocket 3.5 18:27:54 10° S 18:32:21 78° E 18:36:49 10° NNE
GRACE-2 4.0 18:30:07 10° SSE 18:32:33 40° E 18:35:00 10° NNE
SL-8 R/B 4.1 18:28:37 10° SW 18:33:17 52° SSE 18:37:15 14° E
NOAA 12 4.2 18:28:51 10° SE 18:34:01 56° ENE 18:39:14 10° N
METEOR-M 4.1 18:29:32 10° SSE 18:34:52 81° ENE 18:40:15 10° NNW
Cosmos 1420 Rocket 4.0 18:29:48 10° NNW 18:35:10 88° ENE 18:40:28 10° SSE
EO 1 Del DPAF 3.2 18:32:08 10° NNE 18:35:59 61° ESE 18:39:47 10° S
Cosmos 158 Rocket 4.4 18:31:18 10° S 18:36:02 41° ESE 18:40:55 10° NE
APEX 3.7 18:34:25 10° SSE 18:36:52 23° ESE 18:38:02 18° ENE
GRACE-1 3.8 18:34:35 10° SSE 18:37:06 50° E 18:39:37 10° N
Cosmos 2366 rocket 4.1 18:33:30 10° SSW 18:39:43 80° W 18:45:55 10° N
ERS-2 3.4 18:36:15 10° S 18:39:47 45° W 18:43:23 10° NNW
Cosmos 1500 Rocket 3.9 18:35:40 10° NNW 18:40:00 69° W 18:44:17 10° S
MONITOR-E 4.1 18:38:13 10° SSE 18:41:18 89° ESE 18:44:24 10° NNW
Envisat 4.5 18:40:43 15° E 18:42:25 17° NE 18:45:36 10° NNE
Cosmos 2333 4.2 18:38:16 10° NNW 18:44:01 79° ENE 18:49:47 10° SSE
Landsat 4 4.2 18:40:21 10° N 18:44:03 62° WNW 18:47:43 10° SSW
Cosmos 1315 Rocket 2.9 18:39:58 10° NNW 18:44:03 84° W 18:48:10 10° S
BREEZE M DEB (TANK) 2.2 18:38:14 10° W 18:44:20 85° S 18:46:06 20° ESE
Cosmos 1726 2.8 18:46:27 10° SSE 18:49:44 31° E 18:53:01 10° NNE
Thor Agena Rocket 4.2 18:45:36 10° NNE 18:50:07 31° E 18:54:34 10° SSE
Abrixas rocket 2.1 18:47:59 10° W 18:51:16 82° S 18:53:04 25° E
Cosmos 44 Rocket 3.6 18:47:54 10° S 18:52:18 41° ESE 18:55:46 15° NE
Cosmos 2237 Rocket 2.7 18:48:28 10° NNW 18:53:51 40° NE 18:57:54 17° ESE
Gbstr 26 Del rocket 3.8 18:49:57 10° WNW 18:54:44 64° SSW 19:00:17 12° SE
Meteor 1-28 Rocket 4.1 18:51:19 10° N 18:55:01 51° WNW 18:58:41 10° SSW
Resurs 01 Rocket 2.8 19:03:24 22° ENE 19:03:39 22° ENE 19:07:04 10° NNE
Cosmos 1331 Rocket 4.2 18:59:13 10° NNW 19:04:16 47° ENE 19:07:59 17° SE
SL-16 R/B 3.3 19:00:38 10° NNW 19:05:20 26° NE 19:07:11 22° ENE
Cosmos 2227 Rocket 3.6 19:01:38 10° SE 19:04:19 18° ESE 19:04:19 18° ESE
Sich 1 3.2 19:01:27 10° N 19:05:44 51° ENE 19:10:02 10° SSE
COSMO-SKYMED 1 2.7 19:01:51 10° NNE 19:06:13 80° WNW 19:10:33 10° SSW
Lacrosse 5 rocket 2.9 19:05:06 10° WNW 19:08:55 28° N 19:11:10 18° NE
SJ-6B 3.0 19:08:06 26° ESE 19:09:42 41° ENE 19:13:14 10° N
Cosmos 1000 Rocket 4.5 19:04:01 10° N 19:10:18 89° E 19:16:29 10° S
Cosmos 2360 Rocket 4.2 19:10:01 10° NW 19:14:50 30° WSW 19:19:40 10° SSW
USA 234 3.8 19:11:24 21° ENE 19:15:34 47° N 19:21:47 10° WNW
Cosmos 1821 Rocket 3.9 19:09:40 10° S 19:15:47 70° E 19:22:03 10° NNE
FREGAT/IRIS 2.4 19:14:49 35° SSE 19:15:54 67° ENE 19:18:54 10° N
Cosmos 1934 Rocket 4.1 19:10:15 10° SSE 19:16:25 55° E 19:22:37 10° NNE
Meteor 2-3 Rocket 4.4 19:11:31 10° N 19:16:45 34° ENE 19:18:31 28° E
Cosmos 1908 3.8 19:14:06 10° SSW 19:17:57 59° WNW 19:21:50 10° N
Cosmos 1980 3.7 19:12:28 10° NNW 19:18:05 60° ENE 19:21:41 22° SE
Cosmos 1805 Rocket 3.6 19:14:31 10° NNW 19:18:55 81° W 19:23:20 10° S
DMSP B5D1-3 4.4 19:16:22 10° NNE 19:21:32 85° ESE 19:26:41 10° SSW
Cosmos 2239 Rocket 4.3 19:15:49 10° S 19:21:56 77° E 19:28:07 10° NNE
ATLAS 5 CENTAUR R/B 3.9 19:19:58 10° NW 19:23:50 19° N 19:26:24 15° NE
COSMOS 2428 3.5 19:19:15 10° NW 19:24:44 52° WSW 19:30:14 10° S
Cosmos 1269 Rocket 3.9 19:19:43 10° SSW 19:24:58 75° ESE 19:30:16 10° NNE
H-2A R/B 2.6 19:23:03 10° SSE 19:26:55 83° ENE 19:30:52 10° NNW
Cosmos 2333 Rocket 2.2 19:22:08 10° NNW 19:27:54 87° WSW 19:33:15 12° SSE
Cosmos 1666 Rocket 3.4 19:23:46 10° N 19:28:09 83° E 19:32:28 10° S
ALOS 3.1 19:25:37 10° S 19:30:11 52° W 19:34:46 10° NNW
Cosmos 1302 Rocket 4.2 19:27:31 10° NNW 19:32:34 47° ENE 19:33:46 40° E
Cosmos 1633 Rocket 2.9 19:29:32 10° N 19:33:59 80° E 19:37:28 16° SSE
HJ-1C 3.2 19:33:55 74° E 19:34:00 75° ENE 19:37:26 10° N
Cosmos 2219 3.1 19:28:25 10° SSW 19:34:09 79° ESE 19:39:55 10° NNE
Cosmos 1933 Rocket 4.3 19:31:51 10° N 19:35:01 34° NE 19:35:01 34° NE
FENGYUN 3A 4.4 19:31:01 10° S 19:36:17 53° W 19:41:37 10° NNW
Cosmos 2123 Rocket 3.9 19:35:24 10° N 19:41:41 90° ENE 19:47:58 10° S
Cosmos 2297 Rocket 3.9 19:37:55 10° SSE 19:39:18 17° SSE 19:39:18 17° SSE
Cosmos 1300 2.6 19:41:37 10° S 19:45:27 88° W 19:49:18 10° N
Spot 2 Rocket 3.6 19:45:36 48° ENE 19:45:47 48° ENE 19:50:40 10° N
Cosmos 1892 4.4 19:43:05 10° N 19:44:42 22° NNE 19:44:42 22° NNE
CSL-04 DEB 4.3 19:46:31 42° S 19:47:51 84° WSW 19:51:53 10° NNW
Cosmos 2098 Rocket 4.1 19:43:29 10° SSW 19:48:18 63° WNW 19:54:29 10° N
Meteor 2-2 Rocket 4.1 19:42:55 10° S 19:48:31 64° E 19:54:06 10° NNE
Iridium 4 Rocket 4.5 19:43:10 10° SSW 19:48:44 55° W 19:54:33 10° N
Cosmos 1605 Rocket 3.8 19:44:10 10° S 19:50:11 67° E 19:56:14 10° NNE
MOS 1-B Rocket 3.8 19:47:31 26° SSE 19:50:53 75° ENE 19:57:14 10° NNW
Cosmos 494 Rocket 4.1 19:45:56 10° S 19:50:07 48° SE 19:50:07 48° SE
CZ-2D R/B 3.6 19:51:54 55° N 19:51:54 55° N 19:55:02 10° N
Cosmos 1110 Rocket 4.2 19:46:22 10° NNW 19:51:40 69° WSW 19:55:19 20° S
USA 32 3.9 19:47:42 10° N 19:52:57 68° E 19:54:17 48° SE
Cosmos 967 Rocket 4.4 19:46:35 10° NW 19:53:05 81° NE 19:55:31 41° SE
Meteor 2-10 3.9 19:49:08 10° S 19:54:11 88° WNW 19:59:23 10° NNE
H-2A R/B 4.4 20:02:28 11° NNE 20:02:28 11° NNE 20:03:02 10° NNE
Cosmos 2221 4.4 19:56:24 10° SW 20:00:14 30° WNW 20:04:08 10° N
Cosmos 44 3.6 19:57:53 10° SW 20:02:09 55° NW 20:03:15 42° N
Cosmos 2219 Rocket 3.3 19:57:17 10° NW 20:02:32 42° WSW 20:07:46 10° S
CZ-4C R/B 2.3 20:06:21 10° SW 20:11:44 75° NW 20:14:12 37° NNE
SL-8 R/B 3.8 20:10:51 10° W 20:15:13 72° WSW 20:15:13 72° WSW
Cosmos 1447 Rocket 4.5 20:13:36 10° N 20:19:59 85° W 20:22:26 40° S
USA 267 4.1 20:22:48 32° S 20:22:48 32° S 20:26:44 10° SSW
Envisat 2.9 20:20:56 83° NW 20:20:56 83° NW 20:25:54 10° NNW
Cosmos 1470 Rocket 4.3 20:22:01 10° NNW 20:25:52 53° WNW 20:25:52 53° WNW
Cosmos 44 Rocket 4.4 20:29:30 10° WSW 20:33:52 37° NW 20:34:30 35° NNW
Cosmos 2237 Rocket 3.3 20:32:37 10° NW 20:37:57 41° WSW 20:39:47 32° SSW
Resurs 01 Rocket 2.9 20:40:59 38° WNW 20:40:59 38° WNW 20:44:09 10° NNW
Cosmos 2227 Rocket 3.4 20:43:21 10° SSW 20:46:16 32° SW 20:46:16 32° SW
Lacrosse 5 rocket 3.6 20:45:03 10° NW 20:46:51 21° NW 20:46:51 21° NW
SL-16 R/B 2.6 20:44:21 10° NNW 20:49:04 59° NW 20:49:04 59° NW
USA 234 3.3 20:58:45 73° NNW 20:58:45 73° NNW 21:04:46 10° NW
ATLAS 5 CENTAUR R/B 3.8 21:04:49 10° NW 21:07:56 28° N 21:07:56 28° N
CZ-4C R/B 4.3 21:56:24 10° WNW 21:59:25 24° NW 21:59:25 24° NW
